Regional Weather Roundup
Issued by NWS Grand Forks, ND

Current Version | Previous Version | Text Only | Print | Product List | Glossary On
Versions: 1 2 3 4 5 6 7 8 9 10 11 12 13 14 15 16 17 18 19 20 21 22 23 24 25 26 27 28 29 30 31 32 33 34 35 36 37 38 39 40 41 42 43 44 45 46 47 48 49 50
000
ASUS43 KFGF 030931
RWRFGF
PRAIRIE TO PINES  WEATHER ROUNDUP
NATIONAL WEATHER SERVICE EASTERN NORTH DAKOTA/GRAND FORKS ND
400 AM CDT THU SEP 03 2015

 **SATELLITE DATA USED TO AUGMENT SKY COVER AT AUTOMATED STATIONS**
 *****  WEATHER ACROSS EASTERN NORTH DAKOTA  *****

CITY           SKY/WX    TMP DP  RH WIND       PRES   REMARKS
GRAND FORKS    MOCLDY    70  66  88 SE10      29.78S
GRAND FRKS AFB CLOUDY    70  68  94 S8        29.79R
GRAND FRKS NWS   N/A     68 N/A N/A SE12        N/A
DEVILS LAKE    CLOUDY    73  66  78 SE14      29.73F
FARGO          CLOUDY    73  69  87 SE15      29.79S
WAHPETON ARPT  CLOUDY    72  68  88 SE13G20   29.81S
$$

 ***** WEATHER ACROSS CENTRAL AND WESTERN NORTH DAKOTA  *****

CITY           SKY/WX    TMP DP  RH WIND       PRES   REMARKS
BISMARCK       CLEAR     69  68  96 NE5       29.69F
MINOT          MOCLDY    73  68  84 SE12      29.65F
JAMESTOWN      MOCLDY    73  71  93 SE10      29.75S FOG
MINOT AFB      MOCLDY    67  67 100 SE8       29.64F
GARRISON         N/A     72  31  22 SE10      29.67F
WILLISTON      PTCLDY    73  54  51 NW10G23   29.66R
DICKINSON      CLEAR     65  59  81 S9        29.67F
HETTINGER      FOG       55  53  93 CALM      29.72S VSB 3/4
$$

 *****  OTHER AIRPORT OBSERVATIONS IN OUR AREA  *****

CITY           SKY/WX    TMP DP  RH WIND       PRES   REMARKS
WALHALLA       FAIR      72  72 100 MISG      29.76S
GRAFTON AIRPOR CLOUDY    70  70 100 SE12      29.79S
VALLEY CITY AR FOG       72  72 100 SE15      29.77F VSB 1/2
CANDO          CLOUDY    73  72  94 S15G21    29.74F
CAVALIER APRT  CLOUDY    72  68  88 S12G17    29.77S
GWINNER        CLOUDY    73  73 100 SE15      29.78S
SHEYENNE NWR     N/A     71  70  97 SE12      29.95S
ROLLA          CLOUDY    72  72 100 S9        29.75S FOG
 ***** THE ABOVE OBSERVATIONS ARE NON NWS ARE NOT QUALITY
       CONTROLLED AND MAY MIS-REPORT RAIN FOR SNOW...
$$

  *****  WEATHER ACROSS NORTHERN MINNESOTA  *****

CITY           SKY/WX    TMP DP  RH WIND       PRES   REMARKS
FLAG ISLAND    CLEAR     70  64  83 S16       29.87S
WARROAD        CLEAR     66  63  88 SE8       29.87S
ROSEAU         CLEAR     66  61  82 SE8       29.85S
HALLOCK        CLEAR     70  66  88 SE10      29.79S
THF RVR FALLS  CLEAR     64  64 100 SE9       29.83F
BAUDETTE       CLEAR     63  62  97 SE8       29.89S
WASKISH        CLEAR     61  61 100 E5        29.90S FOG
CROOKSTON      CLEAR     68  66  94 SE13      29.81F
STEPHEN NDAWN    N/A     68  66  94 SE12        N/A
GREENBUSH NDAW   N/A     66  64  94 S7          N/A
$$
  *****  WEATHER ACROSS CENTRAL AND WEST MINNESOTA  *****

CITY           SKY/WX    TMP DP  RH WIND       PRES   REMARKS
FOSSTON        CLEAR     66  63  88 SE8       29.86S FOG
BEMIDJI        CLOUDY    65  64  98 SE9       29.90S
PARK RAPIDS    CLOUDY    68  65  90 SE8       29.90S
ELBOW LAKE     CLOUDY    69  68  98 E14       29.84S FOG
WADENA         CLOUDY    68  64  88 SE8       29.88F
DETROIT LAKES  CLOUDY    70  68  94 SE16      29.87F
MOORHEAD       CLOUDY    72  70  94 SE10      29.81S FOG
FERGUS FALLS   CLOUDY    72  72 100 SE10      29.83S FOG
MORRIS MN      FOG       72  70  94 SE9       29.83S VSB 1
STAPLES        CLOUDY    66  64  94 E5        29.90S
$$
  *****  WEATHER ELSEWHERE ACROSS MINNESOTA  *****

CITY           SKY/WX    TMP DP  RH WIND       PRES   REMARKS
DULUTH         FOG       61  61 100 E7        29.97S VSB 1/4
INTRNTL FALLS  CLEAR     59  58  96 CALM      29.94S FOG
ELY            FOG       55  54  94 CALM      29.98F VSB 1/4
CLOQUET        FOG       61  59  94 E5        29.97S VSB 1/4
WHEATON        CLOUDY    68  66  94 SE12      29.82S FOG
BRAINERD       CLOUDY    66  64  93 VRB5      29.91F
HIBBING        CLOUDY    61  60  97 CALM      29.97S FOG
ALEXANDRIA     CLOUDY    68  66  93 SE14      29.89S
SAINT CLOUD    CLEAR     65  65 100 E6        29.89F
MINNEAPOLIS    PTCLDY    68  66  93 E6        29.90R
$$

  *****  WEATHER ACROSS SOUTH DAKOTA  *****

CITY           SKY/WX    TMP DP  RH WIND       PRES   REMARKS
SIOUX FALLS    CLEAR     69  67  93 E3        29.83S
BROOKINGS      CLEAR     70  66  88 SE10      29.84S
WATERTOWN      CLEAR     72  69  90 SE12      29.81S
HURON          CLEAR     71  69  93 SE12      29.75S
SISSETON         N/A     72  71  97 S14       29.79F
ABERDEEN       CLEAR     73  69  87 SE12      29.74S
MITCHELL       CLEAR     70  69  97 SE7       29.78S
PIERRE         CLEAR     67  59  75 SE7       29.71S
MOBRIDGE       CLEAR     69  68  96 SE8       29.68S
RAPID CITY     PTCLDY    64  47  53 SE3       29.78F
$$

  *****  SOME WEATHER IN NEARBY STATES *****

CITY           SKY/WX    TMP DP  RH WIND       PRES   REMARKS
GLASGOW MT     CLEAR     68  37  32 N18G28    29.73R
GREAT FALLS MT MOCLDY    56  38  50 E8        29.87F
CHEYENNE WY    MOCLDY    64  43  46 W9        30.06F
SCOTTSBLUFF NE PTCLDY    64  51  62 N5        29.91S
OMAHA NE       CLEAR     76  69  79 S13       29.85S
DES MOINES IA  PTCLDY    74  68  81 S7        29.90S
DAVENPORT IA   MOCLDY    73  68  84 S5        29.95R
CHICAGO IL     PTCLDY    74  69  85 SW6       29.95S
EAU CLAIRE WI  CLOUDY    68  67  96 NE5       29.91S
LA CROSSE WI   CLEAR     73  69  87 SE6       29.90R
$$

  *****  SOME NATIONAL WEATHER *****

CITY           SKY/WX    TMP DP  RH WIND       PRES   REMARKS
LA GUARDIA NY  CLEAR     78  66  66 N6        29.85S
RALEIGH NC     FOG       70  69  97 CALM      29.95F VSB 1/2
ATLANTA GA     CLOUDY    76  70  82 NW6       29.99S
NEW ORLEANS LA CLOUDY    77  71  82 CALM      29.96R
OKLAHOMA CITY  PTCLDY    69  64  84 S7        29.96R
ALBUQUERQUE NM CLOUDY    69  48  47 E3        30.16F
SALT LAKE CITY MOCLDY    78  38  23 SE20      29.88R
LOS ANGELES CA MOCLDY    66  59  77 CALM      29.92F
BOISE ID       MOCLDY    60  43  53 NW13      29.82R
SEATTLE WA     CLEAR     51  48  89 S5        29.97R
$$

*** WEATHER ACROSS MANITOBA...SASKATCHEWAN AND ONTARIO ***
                ***ONTARIO***

CITY           SKY/WX    TMP DP  RH WIND       PRES   REMARKS
GERALDTON      CLEAR     55  54  94 CALM      30.02S
THUNDER BAY    CLEAR     50  50 100 W3        30.00S
SIOUX LOOKOUT  CLEAR     55  55 100 S3        29.95F
TORONTO        MOCLDY    73  70  88 N8        29.93S
BIG TROUT LK   PTCLDY    64  59  82 S5        29.81S
PICKLE LAKE    NOT AVBL
DRYDEN         CLEAR     64  61  88 S8        29.94S
KENORA         CLEAR     66  64  94 S9        29.90F
$$
                *** MANITOBA***

CITY           SKY/WX    TMP DP  RH WIND       PRES   REMARKS
BRANDON        PTCLDY    70  68  94 E7        29.71S
DAUPHIN        CLEAR     70  64  83 N6        29.66R
ISLAND LAKE    CLOUDY    66  64  94 VRB2      29.79R THUNDER
PILOT MOUND      N/A     70  68  94 S14         N/A
THE PAS        PTCLDY    61  57  88 SE7       29.64R
THOMPSON       MOCLDY    57  55  94 N6        29.70
WINNIPEG       CLEAR     70  66  88 SE17      29.77F
LYNN LAKE      CLOUDY    55  52  88 E5        29.72R
CHURCHILL      FOG       46  46 100 E7        29.80R VSB 1
$$
                ***SASKATCHEWAN***

CITY           SKY/WX    TMP DP  RH WIND       PRES   REMARKS
ESTEVAN        MOCLDY    66  61  82 E6        29.67
KINDERSLEY     MOCLDY    46  39  76 NW7       29.81F
LLOYDMINSTER   CLEAR     46  45  93 W15       29.77R
PRINCE ALBERT  MOCLDY    59  52  77 W12       29.67
REGINA         MOCLDY    63  48  59 N14       29.74R
YORKTON        MOCLDY    57  57 100 NE2       29.69R
N. BATTLEFORD  CLEAR     50  43  76 W10       29.78R
LA RONGE       MOCLDY    59  55  88 VRB2      29.59F
SASKATOON      CLOUDY    57  48  72 NW17G29   29.74F
SWIFT CURRENT  CLOUDY    55  48  76 N6        29.78F
$$
NOTE: THESE ARE AUTOMATED STATIONS WITH LIMITED QUALITY CONTROL
      "FAIR" INDICATES FEW OR NO CLOUDS BELOW 12,000 FEET WITH NO
      SIGNIFICANT WEATHER AND/OR OBSTRUCTIONS TO VISIBILITY.
      SKY/WX - SKY CONDITION AND SIGNIFICANT WEATHER.
      TMP - AIR TEMPERATURE.    DP   - DEWPOINT TEMPERATURE.
      RH  - RELATIVE HUMIDITY.  PRES - PRESSURE.
      HX  - HEAT INDEX.         WCI  - WIND CHILL INDEX.
$



USA.gov is the U.S. government's official web portal to all federal, state and local government web resources and services.